Regional Weather Roundup
Issued by NWS Cleveland, OH

Home | Current Version | Previous Version | Text Only | Print | Product List | Glossary Off
Versions: 1 2 3 4 5 6 7 8 9 10 11 12 13 14 15 16 17 18 19 20 21 22 23 24 25 26 27 28 29 30 31 32 33 34 35 36 37 38 39 40 41 42 43 44 45 46 47 48 49 50

000
ASUS41 KCLE 021200
RWRCLE
OHIO REGIONAL WEATHER ROUNDUP
NATIONAL WEATHER SERVICE WILMINGTON, OH
800 AM EDT SUN AUG 02 2015

NOTE: "FAIR" INDICATES FEW OR NO CLOUDS BELOW 12,000 FEET WITH NO
SIGNIFICANT WEATHER AND/OR OBSTRUCTIONS TO VISIBILITY.

OHZ001>008-015>018-024>027-034-035-043-044-021300-
   NORTHWEST OHIO

CITY           SKY/WX    TMP DP  RH WIND       PRES   REMARKS
DEFIANCE       SUNNY     69  62  78 SW6       29.92S
FINDLAY        SUNNY     70  60  70 SW8       29.93R
TOLEDO EXPRESS SUNNY     68  61  78 SW9       29.91R
TOLEDO EXEC    SUNNY     68  60  75 SW7       29.92R
LIMA           SUNNY     68  59  73 SW7       29.96R
$$

OHZ009>014-019>023-028>033-038-089-021300-
   NORTHEAST OHIO

CITY           SKY/WX    TMP DP  RH WIND       PRES   REMARKS
CLE-HOPKINS    SUNNY     68  59  73 SW7       29.94R
CLE-LAKEFRONT  SUNNY     71  58  63 SW9       29.91R
CUY CO. ARPT   SUNNY     70  59  68 SW9       29.93R
LORAIN-ELYRIA  SUNNY     67  60  78 SW6       29.93R
ASHTABULA      SUNNY     64  58  80 S3        29.93S
AKRON-CANTON   MOSUNNY   67  59  75 SW7       29.95R
WOOSTER        NOT AVBL
MANSFIELD      SUNNY     69  58  67 SW10      29.96R
YOUNGSTOWN     PTSUNNY   65  58  78 SW5       29.94S
$$

OHZ042-051>053-060>062-070>072-077>081-021300-
  SOUTHWEST OHIO

CITY           SKY/WX    TMP DP  RH WIND       PRES   REMARKS
CINC-COVINGTON MOSUNNY   66  62  87 CALM      29.99R
CINC-LUNKEN    SUNNY     63  63 100 CALM      29.99R
HAMILTON       SUNNY     67  63  87 CALM      29.99R
DAYTON         NOT AVBL
WRIGHT-PAT AFB NOT AVBL
DAYTON GENERAL SUNNY     67  60  78 CALM      29.98R
WILMINGTON     SUNNY     66  59  78 SW5       29.99R
$$

OHZ036-037-039>041-045>050-054>059-063>069-073>076-082>088-021300-
  CENTRAL AND SOUTHEAST OHIO

CITY           SKY/WX    TMP DP  RH WIND       PRES   REMARKS
COLUMBUS       MOSUNNY   66  59  78 CALM      29.97R
OSU AIRPORT    SUNNY     69  59  70 W6        29.97R
BOLTON FIELD   SUNNY     66  61  82 W3        29.98R
RICKENBACK AFB SUNNY     64  59  86 SW5       29.98R
NEWARK         SUNNY     66  59  78 CALM      29.97R
MARION         SUNNY     69  57  65 W9        29.96R
LANCASTER      SUNNY     67  60  78 CALM      29.98R
ZANESVILLE     SUNNY     64  58  80 CALM      29.97S
NEW PHILLY     MOSUNNY   63  61  93 SE5       29.97R
$$


USA.gov is the U.S. government's official web portal to all federal, state and local government web resources and services.